星链-4152 (STARLINK-4152 )

导读 | 豆包AI

STARLINK-4152是美国(US)于2022年7月17日发射的星链卫星,隶属于SpaceX公司星链互联网星座项目,旨在为全球提供低延迟、高速率的卫星互联网服务,尤其为偏远地区、海上以及航空等场景提供网络覆盖,是星链大规模组网进程中部署的卫星之一。

基本信息
目录编号:
53136
目录名称:
STARLINK-4152
国际标识:
2022-083E
轨道中心:
EARTH
卫星名称:
星链-4152
卫星全名:
星链-4152 (STARLINK-4152 )
卫星状态:
在轨 (已飞行1383 天)
发射日期:
2022-07-17 UTC
国别 :
美国 (US)
星等 :
--
轨道信息
数据来源 国际轨道数据 AOE轨道数据
星历时间 2026-04-30T19:28:27+0800
9小时前
查看轨道信息
2026-04-26T17:00:00+0800
4天前
查看轨道信息
半长轴 6917.897km 6917.875km
偏心率 0.0001182 0.0002547
轨道倾角 53.218° 53.219°
近地点辐角 83.361° 72.955°
升交点赤经 301.635° 320.055°
平近点角 276.752° 307.838°
近地点 538.942km 537.976km
远地点 540.578km 541.5km
周期 95.438分钟 95.437分钟
每日圈数 15.088346 15.08842
详细信息
固有亮度:
5
最大亮度:
2.5
卫星平台:
Starlink v1.5
覆盖范围:
全球
运营商:
太空探索技术公司
运营商所在国:
美国
制造商(研发单位):
太空探索技术公司
制造商所在国:
美国
使用方式:
暂无
卫星简介
星链(Starlink)计划是由太空探索技术公司(SpaceX)提出的一个巨型低轨卫星互联网星座项目,计划在2019年至2024年间在太空搭建由约1.2万颗卫星组成的“星链”网络,其中1584颗将部署在地球上空550千米处的近地轨道,并从2020年开始工作。该卫星仍在工作。
2D轨道图
3D轨道图
轨道高度分析图
轨道倾角分析图
轨道综合分析图
查看轨道综合分析图